GW4545 Weather Reports


time (UTC)temp
C
wind
direction
speed
KPH
gust
KPH
rain 1hr
cm
rain 24hr
cm
rain mn
cm
humidity
%
barometer
mb
20260906061551 12 0 0.0 3.2 0.00 0.03 0.03 88 1016.4
20260906060048 12 340 1.6 4.8 0.00 0.03 0.03 88 1016.5
20260906054553 13 290 0.0 6.4 0.00 0.03 0.03 89 1016.6
20260906053102 12 298 0.0 6.4 0.00 0.03 0.03 89 1016.6
20260906051548 12 272 1.6 4.8 0.00 0.03 0.03 90 1016.6
20260906050057 12 250 0.0 1.6 0.00 0.03 0.03 91 1016.7
20260906044552 12 0 1.6 4.8 0.00 0.03 0.03 90 1016.8
20260906043058 13 270 1.6 3.2 0.00 0.03 0.03 89 1017.1
20260906041550 13 276 0.0 3.2 0.00 0.03 0.03 89 1017.0
20260906040055 13 0 1.6 4.8 0.00 0.03 0.03 89 1017.0
20260906034554 13 262 0.0 4.8 0.00 0.03 0.03 88 1016.8
20260906033101 13 260 1.6 6.4 0.00 0.03 0.03 86 1016.8
20260906031550 14 277 3.2 9.7 0.00 0.03 0.03 85 1016.8
20260906030052 14 276 1.6 4.8 0.00 0.03 0.03 85 1016.7
20260906024600 15 259 3.2 6.4 0.00 0.03 0.03 84 1016.7
20260906023056 15 287 0.0 9.7 0.00 0.03 0.03 81 1016.6
20260906021606 16 261 4.8 12.9 0.00 0.03 0.03 78 1016.6
20260906020107 16 294 4.8 11.3 0.00 0.03 0.03 77 1016.6
20260906014547 17 255 3.2 12.9 0.00 0.03 0.03 73 1016.5
20260906013101 18 248 8.0 12.9 0.00 0.03 0.03 70 1016.6
20260906011601 20 264 3.2 6.4 0.00 0.03 0.03 67 1016.6
20260906010057 21 246 1.6 6.4 0.00 0.03 0.03 54 1016.6
20260906004602 21 245 3.2 6.4 0.00 0.03 0.03 53 1016.6
20260906003057 21 232 1.6 8.0 0.00 0.03 0.03 56 1016.6
20260906001558 21 111 3.2 6.4 0.00 0.03 0.03 55 1016.6
20260906000057 21 0 1.6 11.3 0.00 0.03 0.03 53 1016.7
20260905234554 21 0 1.6 9.7 0.00 0.03 0.03 53 1016.5
20260905233050 21 340 1.6 11.3 0.00 0.03 0.03 55 1016.7
20260905231549 20 269 0.0 6.4 0.00 0.03 0.03 57 1016.6
20260905230055 20 0 1.6 9.7 0.00 0.03 0.03 60 1016.7
20260905224554 19 38 4.8 9.7 0.00 0.03 0.03 63 1016.9
20260905223048 18 154 0.0 8.0 0.00 0.03 0.03 63 1017.0
20260905221554 19 0 3.2 8.0 0.00 0.03 0.03 61 1017.2
20260905214602 20 17 6.4 12.9 0.00 0.03 0.03 65 1017.4
20260905213054 18 164 3.2 11.3 0.00 0.03 0.03 66 1017.6
20260905211553 18 202 3.2 9.7 0.00 0.03 0.03 66 1017.7
20260905210115 19 36 3.2 12.9 0.00 0.03 0.03 67 1017.7
20260905204602 18 5 1.6 6.4 0.00 0.03 0.03 68 1017.8
20260905203055 17 167 3.2 9.7 0.00 0.03 0.03 72 1018.0
20260905201552 17 0 0.0 9.7 0.00 0.03 0.03 72 1018.1
20260905200050 17 181 0.0 4.8 0.00 0.03 0.03 72 1018.1
20260905194610 17 205 3.2 9.7 0.00 0.03 0.03 73 1018.2
20260905193053 17 0 1.6 6.4 0.00 0.03 0.03 76 1018.2
20260905191553 17 329 1.6 8.0 0.00 0.03 0.03 79 1018.2
20260905190048 17 235 4.8 9.7 0.00 0.03 0.03 77 1018.2
20260905184614 17 58 0.0 9.7 0.00 0.03 0.03 76 1018.6
20260905183105 16 214 1.6 4.8 0.00 0.03 0.03 81 1018.6
20260905181557 15 0 0.0 6.4 0.00 0.03 0.03 85 1018.5
20260905180055 15 0 1.6 4.8 0.00 0.03 0.03 87 1018.8
20260905174552 15 110 3.2 9.7 0.00 0.03 0.03 87 1018.7
20260905173047 15 0 3.2 9.7 0.00 0.03 0.03 86 1018.6
20260905171605 15 107 0.0 4.8 0.00 0.03 0.03 89 1018.6
20260905170101 14 0 0.0 4.8 0.00 0.03 0.03 93 1018.4
20260905164602 13 0 0.0 4.8 0.00 0.05 0.03 94 1018.4
20260905163110 13 0 0.0 3.2 0.00 0.05 0.03 95 1018.5
20260905161551 12 0 0.0 1.6 0.00 0.05 0.03 96 1018.3
20260905160100 12 0 0.0 3.2 0.00 0.05 0.03 96 1018.4
20260905154615 12 0 0.0 0.0 0.00 0.05 0.03 96 1018.4
20260905153107 12 0 0.0 3.2 0.00 0.05 0.03 96 1018.4
20260905151614 12 0 0.0 4.8 0.00 0.05 0.03 96 1018.5
20260905150059 12 13 1.6 4.8 0.00 0.05 0.03 97 1018.2
20260905144600 11 0 0.0 1.6 0.00 0.05 0.03 97 1018.3
20260905143056 11 0 0.0 1.6 0.00 0.05 0.03 97 1018.4
20260905141551 11 0 0.0 0.0 0.00 0.05 0.03 96 1018.2
20260905140100 11 0 0.0 0.0 0.00 0.05 0.03 96 1018.2
20260905134558 10 0 0.0 0.0 0.00 0.05 0.03 96 1018.0
20260905133051 10 0 0.0 0.0 0.00 0.05 0.03 96 1018.0
20260905131604 10 0 0.0 0.0 0.00 0.05 0.03 96 1018.1
20260905130055 10 0 0.0 0.0 0.00 0.05 0.03 96 1018.0
20260905124552 10 0 0.0 0.0 0.00 0.05 0.03 96 1017.9
20260905123102 10 0 0.0 0.0 0.00 0.05 0.03 96 1017.9
20260905121602 10 0 0.0 3.2 0.00 0.05 0.03 96 1017.9
20260905120052 10 0 0.0 0.0 0.00 0.05 0.03 96 1017.7
20260905114554 10 306 0.0 1.6 0.00 0.05 0.03 96 1017.7
20260905113051 10 306 0.0 3.2 0.00 0.05 0.03 96 1017.7
20260905111641 10 0 0.0 1.6 0.00 0.05 0.03 96 1017.6
20260905110057 10 258 0.0 1.6 0.00 0.05 0.03 96 1017.7
20260905104547 10 258 0.0 3.2 0.00 0.05 0.03 96 1017.8
20260905103102 10 258 0.0 3.2 0.00 0.05 0.03 96 1017.8
20260905101604 10 0 0.0 0.0 0.00 0.05 0.03 96 1017.8
20260905100052 10 0 0.0 0.0 0.00 0.05 0.03 96 1017.7
20260905094549 10 0 0.0 0.0 0.00 0.05 0.03 96 1017.6
20260905093106 10 0 0.0 0.0 0.00 0.05 0.03 96 1017.6
20260905091553 9 0 0.0 0.0 0.00 0.05 0.03 96 1017.5
20260905090059 9 0 0.0 0.0 0.00 0.05 0.03 96 1017.4
20260905084604 9 0 0.0 0.0 0.03 0.05 0.03 96 1017.5
20260905083052 8 0 0.0 0.0 0.03 0.05 0.03 96 1017.5
20260905081552 8 258 0.0 3.2 0.03 0.05 0.03 96 1017.3
20260905080058 8 0 0.0 0.0 0.03 0.05 0.03 95 1017.3
20260905074558 8 0 0.0 1.6 0.00 0.03 0.00 95 1017.2
20260905073056 8 0 0.0 0.0 0.00 0.03 0.00 95 1017.2
20260905071549 8 0 0.0 1.6 0.00 0.03 0.00 95 1017.1
20260905070059 8 0 0.0 0.0 0.00 0.03 0.00 95 1017.1
20260905064601 8 0 0.0 1.6 0.00 0.03 0.03 95 1016.9
20260905063055 9 258 0.0 4.8 0.00 0.03 0.03 95 1016.7